KA3MCG-13 Weather Reports


Display with metric or nautical units.
time (UTC)temp
F
wind
direction
speed
MPH
gust
MPH
rain 1hr
in
rain 24hr
in
rain mn
in
humidity
%
barometer
mb
20260509173016 59 0.0 2.0 0.00 0.05 0.05 84 1010.3
20260509170016 58 0.0 2.0 0.00 0.05 0.05 86 1010.2
20260509163016 58 0.0 5.0 0.00 0.05 0.05 86 1010.5
20260509160016 57 158 1.0 5.0 0.00 0.05 0.05 86 1010.6
20260509153016 57 0 1.0 6.0 0.00 0.05 0.05 88 1010.6
20260509150016 55 203 1.0 5.0 0.03 0.05 0.05 89 1010.3
20260509143036 54 0.0 1.0 0.05 0.05 0.05 88 1010.4
20260509140036 56 203 1.0 8.0 0.02 0.02 0.02 84 1010.4
20260509133016 57 315 4.0 15.0 0.00 0.00 0.00 75 1010.2
20260509130016 58 293 3.0 11.0 0.00 0.00 0.00 70 1010.4
20260509123016 58 315 5.0 16.0 0.00 0.00 0.00 64 1010.2
20260509120016 58 248 2.0 9.0 0.00 0.00 0.00 63 1010.7
20260509113016 56 248 2.0 8.0 0.00 0.00 0.00 68 1010.5
20260509110016 52 0.0 0.0 0.00 0.00 0.00 75 1010.1
20260509103015 51 0.0 0.0 0.00 0.00 0.00 82 1009.8
20260509100016 51 0.0 0.0 0.00 0.00 0.00 81 1009.8
20260509093016 52 0.0 0.0 0.00 0.00 0.00 81 1009.9
20260509090016 52 0.0 0.0 0.00 0.00 0.00 80 1009.8
20260509083015 51 0.0 0.0 0.00 0.00 0.00 79 1009.9
20260509080015 51 0.0 0.0 0.00 0.00 0.00 80 1010.0
20260509073016 51 0.0 0.0 0.00 0.00 0.00 80 1010.0
20260509070016 51 0.0 0.0 0.00 0.00 0.00 79 1010.2
20260509063015 52 0.0 0.0 0.00 0.00 0.00 76 1010.3
20260509060015 52 0.0 0.0 0.00 0.00 0.00 75 1010.5
20260509053035 53 0.0 1.0 0.00 0.00 0.00 75 1010.7
20260509050015 53 0.0 1.0 0.00 0.00 0.00 73 1010.7
20260509043015 53 0.0 2.0 0.00 0.00 0.00 69 1010.9
20260509040015 53 0.0 0.0 0.00 0.00 0.00 73 1011.1
20260509033017 54 0.0 0.0 0.00 0.00 0.00 70 1011.3
20260509030017 55 0.0 0.0 0.00 0.00 0.00 70 1011.3
20260509023017 55 0.0 1.0 0.00 0.00 0.00 67 1011.4
20260509020017 55 0.0 2.0 0.00 0.00 0.00 69 1011.3
20260509013017 56 0.0 2.0 0.00 0.00 0.00 68 1011.1
20260509010017 55 0.0 2.0 0.00 0.00 0.00 65 1010.9
20260509003017 57 0.0 2.0 0.00 0.00 0.00 62 1010.8
20260509000017 59 0.0 2.0 0.00 0.00 0.00 57 1010.7
20260508233017 63 248 1.0 5.0 0.00 0.00 0.00 51 1010.4
20260508230017 64 248 3.0 11.0 0.00 0.00 0.00 43 1010.1
20260508223016 64 225 3.0 11.0 0.00 0.00 0.00 41 1010.2
20260508220016 65 248 4.0 14.0 0.00 0.00 0.00 41 1010.2
20260508213037 65 270 3.0 14.0 0.00 0.00 0.00 40 1010.2
20260508210037 65 225 3.0 9.0 0.00 0.00 0.00 40 1010.2
20260508203037 66 248 4.0 19.0 0.00 0.00 0.00 36 1010.5
20260508200037 67 248 4.0 16.0 0.00 0.00 0.00 35 1010.6
20260508193017 66 225 4.0 16.0 0.00 0.00 0.00 37 1010.8
20260508190017 66 270 4.0 13.0 0.00 0.00 0.00 35 1010.9
20260508183016 67 248 5.0 14.0 0.00 0.00 0.00 38 1011.5
20260508180016 65 225 6.0 19.0 0.00 0.00 0.00 39 1011.6